Dewpoint
44 44 45 45 46 46 47 47 47 47 47 44 43 44 40 39 38 43 45 47 43 37 32 35 31 32 33 32 29 28 27 30 25 23 23 23 22 20 18 21 17 21 17 16 15 15 19 27 32 37 36 38 34 36 34 33 34 33 32 33 32 49 25 23 24 26 25 26 28 26 25 25 26 25 29 28 24 25 23 25 29 27 27 25 25 25 28
44 44 45 45 46 46 47 47 47 47 47 45 44 40 36 37 38 39 43 48 41 35 25 27 27 31 33 34 31 30 28 26 25 24 24 24 25 24 22 18 18 20 18 19 19 21 18 24 29 31 34 32 38 39 36 35 37 39 32 32 37 24 28 26 22 19 20 23 23 31 28 27 28 28 32 34 33 28 31 31 32 26 28 27 26 22 30
44 44 45 45 46 46 47 47 47 47 48 47 44 39 40 39 41 42 41 43 40 32 33 30 27 31 33 32 30 29 32 29 31 29 25 25 25 27 25 25 25 26 24 24 26 28 23 21 29 33 34 34 36 35 37 34 36 43 46 44 39 26 27 27 21 15 12 12 15 21 27 26 29 33 35 36 37 35 26 22 22 24 27 27 24 27 35
44 44 45 46 46 46 47 47 47 47 47 47 45 42 38 36 26 32 33 37 37 36 37 35 31 28 30 25 29 31 30 28 29 28 31 26 27 25 27 27 28 28 27 27 29 30 31 30 31 31 32 34 35 39 37 39 41 43 44 43 37 29 32 29 26 25 22 25 25 30 33 33 32 33 34 36 37 37 29 26 24 22 25 23 26 35 38
44 44 45 45 46 46 47 47 47 47 47 47 44 42 38 39 29 26 22 30 32 32 35 33 33 28 31 26 30 29 29 28 28 27 28 27 27 30 27 27 28 28 30 29 29 28 31 28 30 29 32 33 32 33 37 39 41 43 41 42 38 33 26 30 31 30 29 28 29 31 31 32 34 34 35 36 36 37 32 23 22 29 27 23 31 39 38
43 44 45 45 46 46 47 47 47 47 47 47 45 39 41 27 27 33 30 28 27 26 27 33 32 30 30 29 33 29 27 28 25 28 27 28 26 27 26 24 26 27 28 31 23 26 32 29 26 31 32 32 31 33 34 36 41 40 39 42 41 34 28 35 32 32 30 29 28 29 31 33 34 34 34 34 36 36 35 33 33 29 26 25 33 39 39
43 44 45 45 46 46 46 47 47 47 46 47 44 32 34 32 31 34 35 27 30 31 31 35 31 30 32 29 30 28 27 28 28 28 28 30 29 26 21 25 23 27 25 27 24 25 23 21 30 29 29 30 32 32 35 37 40 36 40 42 42 37 30 35 34 32 31 32 31 31 31 33 34 34 34 35 35 36 36 35 35 33 30 34 37 38 38
43 44 45 45 46 46 47 47 47 47 46 47 41 33 33 32 32 30 35 34 32 33 32 33 29 25 31 25 28 30 27 28 28 28 28 25 29 27 28 25 25 26 25 26 24 23 26 24 20 29 26 26 33 31 34 37 41 42 40 44 41 38 30 37 37 31 33 35 33 30 34 34 33 33 33 35 35 36 37 35 36 36 36 37 38 38 38
43 43 45 45 46 46 47 47 48 47 46 43 40 34 34 34 38 37 33 30 31 30 32 30 28 24 27 26 28 30 27 28 28 30 29 30 29 29 27 26 28 26 26 28 25 25 24 26 25 26 25 23 32 26 33 35 36 36 39 41 41 40 32 39 35 29 30 35 35 32 33 31 31 31 32 33 34 33 36 34 37 34 34 36 37 37 37
43 43 44 45 46 46 47 47 48 47 45 42 40 37 42 36 37 40 34 27 33 23 24 26 25 18 23 29 27 28 26 30 27 24 28 30 29 30 27 29 28 25 27 28 26 22 20 19 17 18 19 21 22 25 24 29 35 36 40 40 35 38 33 32 32 30 29 35 35 33 31 29 28 30 32 33 35 37 38 38 38 38 37 36 36 36 41
43 43 44 45 45 46 47 47 48 47 45 41 40 39 40 37 37 37 32 26 24 24 25 22 23 25 26 24 26 29 30 30 29 23 21 30 29 30 30 29 25 22 25 27 24 20 18 18 18 20 20 21 21 21 20 23 27 39 39 38 38 38 35 33 36 30 30 32 33 33 28 23 26 34 35 33 35 37 36 36 38 39 38 34 39 40 42
43 43 44 45 45 46 47 47 48 48 46 42 42 41 43 41 40 36 27 25 20 26 22 20 23 27 26 25 24 29 28 28 30 33 26 30 31 32 31 29 26 20 26 28 22 18 18 21 21 21 20 20 22 28 28 29 31 35 37 37 36 34 34 32 35 31 30 32 32 27 23 26 36 38 35 33 34 38 38 38 39 39 39 40 41 42 41
43 43 44 44 45 46 46 47 48 48 47 44 42 40 43 42 40 36 29 25 20 22 22 23 24 25 26 26 24 25 29 28 29 34 34 30 31 34 32 25 25 20 23 19 17 20 20 24 25 31 30 24 27 27 28 27 27 29 33 36 34 30 31 30 30 30 30 30 29 22 25 33 35 38 36 35 36 33 35 34 36 39 38 37 36 38 37
43 43 44 44 45 45 46 47 48 48 48 46 41 42 42 41 38 36 30 27 21 21 25 23 23 27 28 26 27 26 25 26 28 32 30 35 32 30 28 25 19 19 20 21 24 24 25 28 19 23 24 25 28 25 28 27 28 28 31 34 36 34 33 31 29 30 28 28 29 28 32 32 31 32 33 33 30 32 32 30 31 36 38 36 35 36 36
43 43 43 44 45 45 46 47 48 48 48 47 42 42 42 41 41 39 38 30 22 23 21 20 24 27 27 25 25 25 25 26 26 26 27 35 32 31 32 25 22 23 26 24 23 27 21 21 21 23 23 23 17 20 25 26 28 28 30 29 29 33 30 31 30 28 30 29 26 26 24 22 27 32 36 39 38 38 38 35 31 36 37 35 35 35 36
43 43 43 44 45 45 46 46 47 48 48 47 42 41 42 41 41 40 37 29 26 21 18 25 28 27 24 24 25 25 23 23 25 26 28 27 23 21 22 23 25 27 27 25 25 21 22 16 16 21 20 22 21 22 22 28 27 30 30 29 30 30 31 31 30 28 28 27 23 23 21 26 31 32 33 36 37 37 37 34 31 36 38 33 33 34 35
43 43 43 44 44 45 45 46 47 48 48 47 43 42 38 40 41 38 32 21 22 15 17 20 29 28 21 23 25 25 25 24 25 24 25 24 25 22 22 24 26 27 26 30 27 22 24 21 22 23 24 26 20 19 26 26 24 24 26 29 29 29 30 28 26 25 27 28 24 24 29 27 31 31 31 32 36 37 34 26 27 34 39 36 33 32 33
43 43 43 43 44 45 45 46 47 48 48 48 44 41 39 41 42 40 33 24 21 16 19 22 21 19 18 20 23 26 29 28 26 28 24 25 25 21 22 23 26 26 30 28 27 24 21 19 19 21 20 26 26 27 20 24 21 21 25 28 25 28 29 29 27 27 28 27 26 26 27 30 31 30 31 32 36 35 26 22 30 38 39 36 35 35 33
43 43 43 43 44 44 45 46 46 47 48 48 46 41 38 41 42 39 30 26 24 19 17 20 21 21 21 25 26 28 28 26 25 25 25 26 23 22 24 23 27 24 26 25 27 23 19 17 22 22 22 22 27 23 26 19 21 25 24 22 25 26 27 29 28 27 24 23 22 21 23 28 30 31 34 33 32 27 24 32 35 38 36 35 33 34 34
43 43 43 43 44 44 45 45 46 47 48 48 45 39 41 44 42 40 36 28 23 19 20 20 21 16 21 23 21 22 23 24 25 24 21 20 24 26 27 25 27 25 26 27 25 25 20 16 17 20 23 20 19 23 19 16 20 19 23 24 23 23 27 26 26 25 24 23 21 20 19 25 32 32 30 33 28 28 33 33 31 32 32 35 33 32 32
42 42 42 43 43 44 45 45 46 47 47 48 46 41 41 41 43 41 41 35 24 23 19 20 18 17 20 23 25 24 25 21 22 21 23 24 26 26 21 18 22 22 21 23 22 23 20 19 19 16 21 20 20 24 18 17 20 21 23 23 23 25 26 25 27 27 21 21 21 22 27 29 32 32 28 31 33 34 33 30 29 31 32 31 31 31 30
42 42 43 43 43 44 44 45 46 46 47 48 46 41 39 41 43 42 43 37 29 24 24 23 18 21 22 21 24 25 22 23 27 24 24 24 27 23 23 25 23 23 25 26 24 21 24 21 21 20 17 19 23 17 21 20 14 18 23 25 21 25 26 25 25 27 24 24 27 29 30 31 31 32 31 31 31 32 31 31 31 30 30 32 31 34 31
42 42 42 43 43 44 44 45 45 46 47 48 45 41 38 42 40 42 40 32 33 33 34 30 30 25 24 22 22 23 24 27 33 32 30 27 26 26 24 24 24 27 28 27 21 18 21 21 17 20 20 19 18 16 17 20 15 18 20 23 26 28 28 29 27 27 28 29 30 30 29 29 30 31 31 29 30 31 32 31 31 31 31 30 33 32 33
42 42 42 43 43 43 44 44 45 46 46 47 46 41 39 41 43 39 38 35 28 21 26 27 23 19 24 23 22 22 23 25 29 29 33 32 26 26 28 28 26 30 27 28 29 23 20 20 20 21 15 17 24 19 14 15 12 19 22 18 18 21 28 27 26 27 27 23 28 28 28 29 29 29 30 31 31 31 31 32 33 34 32 31 33 31 31
42 42 42 42 43 43 44 44 45 46 46 47 46 44 43 41 39 39 36 29 31 28 18 22 26 23 22 18 19 20 21 26 36 36 36 32 28 24 20 24 28 25 25 27 29 24 23 16 18 18 17 16 25 14 19 20 17 23 20 18 22 23 27 27 27 26 24 23 28 29 30 29 30 29 29 29 30 31 33 33 34 35 37 36 38 38 37
42 42 42 42 43 43 44 44 45 45 46 47 47 40 39 39 42 40 40 38 36 29 21 17 20 27 20 20 21 23 26 26 26 30 32 30 28 28 27 31 25 33 30 32 29 23 23 22 20 19 19 13 25 16 15 17 20 22 21 18 21 22 30 23 26 26 26 28 28 28 27 27 27 28 29 30 32 32 33 35 34 33 31 31 31 32 33
42 42 42 42 43 43 44 44 45 45 46 47 44 41 41 42 41 38 35 34 31 24 28 20 24 26 21 25 22 23 24 26 30 27 26 26 29 34 31 30 23 25 25 23 27 24 24 23 25 19 21 17 24 24 19 20 21 18 19 20 24 26 25 26 27 25 22 25 26 26 25 23 25 27 28 29 30 29 29 29 30 30 30 30 30 31 33
42 42 42 43 43 43 44 45 45 46 46 47 44 43 42 39 35 38 39 39 32 28 28 28 25 23 30 25 21 22 25 26 30 29 27 27 30 32 28 27 25 24 24 25 22 21 21 21 17 18 21 22 22 18 24 21 25 21 20 19 23 23 24 25 24 25 24 27 28 30 28 26 27 28 29 30 30 29 29 29 29 29 29 30 29 27 27
42 42 43 44 44 45 45 45 46 46 47 46 42 41 39 39 38 36 39 42 38 34 29 30 32 26 21 25 25 19 23 33 32 31 31 29 30 29 26 25 21 24 27 24 22 23 24 18 20 17 16 20 22 14 23 17 20 17 18 21 23 24 27 28 28 28 28 30 31 29 27 26 29 30 30 30 31 29 28 28 28 28 27 28 28 28 27
42 43 44 44 46 46 46 46 46 47 47 42 40 36 31 35 38 36 39 43 40 35 28 25 23 19 28 25 26 25 23 31 32 32 29 28 29 27 20 21 22 31 24 20 21 14 17 19 18 23 23 26 18 14 15 17 17 16 20 20 22 25 27 30 29 27 26 30 30 30 29 28 28 27 28 29 31 28 26 24 23 23 24 24 25 26 27
44 44 45 46 46 46 46 46 46 47 47 40 35 27 26 25 31 39 41 40 41 34 27 28 27 25 23 27 27 23 24 28 29 29 28 28 31 27 29 29 26 28 21 26 25 17 19 15 16 19 24 24 25 14 14 17 15 17 19 22 22 22 24 25 28 29 30 29 27 28 29 28 28 22 24 26 27 27 28 29 31 32 29 26 24 24 25
45 45 46 46 47 46 46 46 47 46 41 35 30 28 28 26 26 38 40 42 41 34 27 25 21 20 21 26 31 26 22 27 33 32 30 31 26 28 27 26 19 29 27 18 18 23 17 15 16 19 18 21 28 15 21 18 17 15 19 20 22 22 23 22 23 25 26 25 24 23 23 24 24 21 20 25 26 26 25 26 26 27 29 26 25 26 25
45 46 47 47 47 46 46 47 47 46 40 42 45 45 46 45 44 43 42 41 39 33 30 27 22 18 19 22 30 30 29 32 26 28 23 28 24 26 20 29 29 27 35 27 16 14 17 19 20 19 18 26 17 17 19 12 16 19 21 23 21 21 23 24 23 24 24 24 23 21 22 24 25 26 26 26 25 24 24 24 24 25 24 22 22 24 24
45 46 47 47 46 46 47 46 46 46 45 40 37 38 41 43 40 43 41 41 37 34 27 22 16 17 18 27 24 27 28 23 23 26 18 29 27 26 19 25 26 22 26 20 19 24 25 26 17 14 23 17 19 18 12 17 20 22 22 21 21 21 22 22 22 22 22 23 23 22 22 26 29 29 25 24 25 27 25 24 23 22 24 25 25 25 25
45 46 47 47 46 46 47 45 39 41 38 39 39 38 39 45 41 43 43 37 29 26 22 21 22 22 18 20 22 22 30 28 19 21 20 23 27 20 24 20 25 23 24 29 26 22 19 18 21 22 12 18 18 11 13 18 21 22 23 21 22 22 21 21 22 23 25 26 26 25 25 22 21 22 22 24 24 24 22 23 23 23 23 23 24 24 25
45 46 47 47 47 46 40 42 38 38 36 36 36 43 44 44 43 38 41 42 33 26 22 22 22 19 23 20 18 19 24 27 27 27 24 22 24 27 24 23 21 24 22 21 14 21 17 18 25 12 16 17 13 16 17 19 18 20 22 21 22 23 20 20 22 25 27 29 30 30 28 26 24 24 24 24 25 25 25 23 24 24 23 24 25 25 26
46 47 47 46 43 39 35 34 39 37 34 38 41 46 45 44 41 41 39 38 37 35 27 22 26 21 21 17 19 25 27 20 22 24 24 20 17 22 22 25 17 19 26 25 21 14 18 29 20 13 15 13 15 20 21 21 19 20 21 23 24 25 24 24 25 27 27 26 27 25 26 25 25 28 26 23 22 24 23 22 22 22 22 24 24 25 25
46 46 38 38 36 30 29 30 35 40 42 42 45 36 34 35 28 28 28 26 29 37 26 27 21 22 26 26 22 24 24 20 25 22 23 23 20 18 21 19 16 24 10 17 18 25 20 18 18 17 14 19 21 21 22 24 24 25 25 25 25 26 26 26 26 25 23 23 23 23 23 24 24 26 23 21 23 22 22 23 24 24 25 26 25 25 25
44 38 36 36 32 28 30 32 40 40 36 40 37 29 27 26 24 20 20 20 22 23 25 26 20 25 24 24 24 30 23 20 21 22 20 21 21 18 20 14 15 20 15 14 16 26 13 20 15 17 14 19 20 20 24 26 26 26 27 25 26 26 28 27 26 24 24 24 24 25 25 23 22 20 23 23 24 26 26 26 26 26 26 26 25 25 25
37 34 31 31 29 30 38 40 43 39 36 29 28 24 17 20 22 15 19 19 20 22 25 21 23 23 22 21 21 21 27 24 20 17 19 21 25 19 19 20 21 15 8 10 14 22 11 6 12 13 12 17 18 21 25 25 26 26 27 27 27 27 27 27 27 27 27 27 27 26 27 29 25 23 23 24 25 24 24 25 26 26 26 26 26 26 26
36 35 33 30 35 37 38 37 36 34 27 21 19 17 17 16 21 20 21 19 19 18 22 24 25 22 22 27 26 20 27 30 27 24 22 19 25 24 19 12 18 14 11 10 18 19 16 12 9 10 14 18 19 22 25 26 27 27 29 29 30 29 28 27 27 26 27 26 27 27 27 27 26 25 26 26 26 24 23 24 25 25 25 25 24 24 27
36 35 37 39 39 39 37 31 28 22 18 19 16 14 17 19 20 21 22 20 15 18 19 23 19 20 19 22 23 26 24 26 23 22 21 16 23 17 14 17 18 9 5 14 18 20 15 7 9 11 16 21 23 24 25 25 27 27 28 29 30 30 29 29 28 28 27 27 27 25 26 25 25 27 28 27 27 26 25 26 26 27 26 24 25 28 28
44 43 41 37 35 30 27 23 23 19 12 13 13 13 17 14 16 16 16 20 22 22 22 28 23 27 29 30 25 26 24 27 23 20 20 16 20 19 16 14 10 8 12 20 16 10 8 8 8 14 22 22 24 24 24 26 27 29 28 29 29 30 30 30 28 28 29 27 26 25 26 26 26 26 28 28 28 26 26 26 26 26 26 28 27 28 27
39 40 36 33 23 21 22 14 19 18 17 16 14 10 14 14 19 19 15 13 18 24 25 21 21 25 22 27 24 22 27 27 26 22 21 20 19 13 14 9 9 18 21 15 12 7 9 15 20 20 21 24 27 24 24 26 28 28 28 29 29 30 31 31 31 30 30 30 28 27 28 27 27 27 27 28 25 24 26 28 28 26 26 27 27 28 27
30 26 24 20 18 20 16 8 17 12 11 14 20 19 19 17 18 19 18 19 25 23 25 25 25 25 23 25 28 26 24 22 25 20 16 20 15 17 12 11 17 18 11 8 8 9 15 13 21 22 24 24 23 23 25 25 27 26 26 29 29 29 29 27 28 29 29 29 29 30 30 30 31 31 30 30 30 29 27 26 27 26 25 25 26 28 28
28 22 18 12 8 13 15 11 14 13 20 19 18 22 22 22 22 19 20 25 24 22 22 23 26 26 22 24 24 22 24 22 20 18 21 19 14 11 17 20 17 9 7 6 6 8 11 17 20 20 22 22 22 23 25 26 26 27 28 26 27 28 29 28 29 28 28 29 30 31 31 32 31 29 30 31 31 31 30 29 29 29 27 24 24 26 28
29 22 22 19 14 17 19 15 14 22 21 20 22 23 21 21 23 21 23 26 24 25 26 26 24 23 21 20 22 21 25 23 16 19 22 14 13 18 21 17 9 9 5 5 6 9 14 18 22 22 23 21 22 23 24 24 25 26 26 28 28 29 29 29 29 29 29 29 29 29 30 31 31 31 31 31 30 31 32 32 32 30 27 25 27 26 28
23 22 23 16 13 17 14 17 24 22 21 23 22 23 24 25 22 21 23 26 27 28 25 26 24 25 26 27 26 20 22 22 19 21 18 16 18 15 11 9 9 10 9 9 14 18 19 20 21 21 23 25 23 23 23 24 26 27 29 30 30 29 29 30 29 30 30 29 30 30 30 30 31 30 30 30 30 31 32 31 31 31 30 29 28 27 27
27 23 20 18 19 17 18 25 20 17 21 21 21 22 22 22 22 22 23 26 25 25 26 24 22 22 20 24 20 21 17 22 15 14 19 17 10 8 8 7 8 10 15 18 21 23 23 23 25 26 27 28 28 29 28 29 29 29 31 30 30 30 30 30 30 29 29 29 30 30 30 31 31 31 29 29 30 30 31 32 32 31 31 30 28 26 24
23 22 22 23 26 26 26 26 23 21 21 20 24 23 23 22 23 24 27 26 26 26 27 28 26 27 22 18 16 18 18 22 18 18 14 12 13 13 11 9 9 9 15 22 22 21 24 24 26 26 27 28 29 29 29 30 31 30 31 32 32 31 31 31 30 29 29 29 29 29 29 29 31 31 31 30 32 33 32 31 31 30 31 31 29 28 27
26 24 25 26 23 23 22 19 19 22 23 21 22 22 24 23 24 24 27 29 29 27 27 24 25 24 21 18 15 11 15 22 19 16 15 13 15 13 10 9 13 18 21 25 25 25 25 27 25 25 26 27 28 30 30 31 31 31 32 32 32 32 32 31 31 30 29 30 30 30 30 30 31 32 34 34 35 34 34 33 32 31 30 30 30 29 27
23 22 22 27 26 25 25 26 24 23 22 23 24 26 28 26 27 26 29 27 27 27 21 24 24 21 17 16 19 21 21 20 19 18 15 19 21 15 16 20 23 25 25 23 24 27 27 28 27 26 26 27 28 30 30 31 31 31 32 33 32 32 32 31 31 31 31 30 30 29 29 30 32 31 33 33 32 31 30 30 30 29 30 30 30 29 29